Miscellaneous Local Product
Issued by NWS Hastings, NE

Home | Current Version | Previous Version | Text Only | Print | Product List | Glossary Off
Versions: 1 2 3 4 5 6 7 8 9 10 11 12 13 14 15 16 17 18 19 20 21 22 23 24 25 26 27 28 29 30 31 32 33 34 35 36 37 38 39 40 41 42 43 44 45 46 47 48 49 50

000
AXUS43 KGID 040102
MISGRI

GID CWA HOURLY WEATHER ROUNDUP
NATIONAL WEATHER SERVICE HASTINGS NE
800 PM CDT FRI JUL 03 2015

NOTE: "FAIR" INDICATES FEW OR NO CLOUDS BELOW 12,000 FEET WITH NO
SIGNIFICANT WEATHER AND/OR OBSTRUCTIONS TO VISIBILITY.

...SOUTH CENTRAL NEBRASKA...

CITY           SKY/WX    TMP DP  RH WIND       PRES   REMARKS
GRAND ISLAND   SUNNY     75  62  64 E6        29.98F
HASTINGS       SUNNY     75  62  64 E8        29.98S
KEARNEY        SUNNY     75  61  60 E7        29.98F
ORD            SUNNY     79  60  52 S7        29.95S
YORK           MOSUNNY   73  64  73 CALM      29.98F
AURORA         SUNNY     74  65  73 E3        29.98S
LEXINGTON      SUNNY     79  64  59 SE9       29.98R
HOLDREGE       SUNNY     75  60  60 E7        29.98F
HEBRON         CLEAR     76  60  58 NE5       29.96F

...NEBRASKA PANHANDLE...

CITY           SKY/WX    TMP DP  RH WIND       PRES   REMARKS
CHADRON        SUNNY     80  59  48 E7        29.95F
ALLIANCE       SUNNY     77  58  51 E9        30.00F
SCOTTSBLUFF    SUNNY     82  56  40 SE10      29.99S
SIDNEY         SUNNY     79  56  45 E13       30.04S

...WESTERN AND NORTH CENTRAL NEBRASKA...

CITY           SKY/WX    TMP DP  RH WIND       PRES   REMARKS
VALENTINE      SUNNY     79  60  52 E6        29.96F
AINSWORTH      SUNNY     78  60  54 E3        29.97F
ONEILL         SUNNY     77  65  66 E5        29.98S
BROKEN BOW     SUNNY     79  62  56 SE6       29.98S
IMPERIAL       SUNNY     82  57  42 E9        29.99S
NORTH PLATTE   SUNNY     80  62  54 SE7       29.98S
MCCOOK         SUNNY     80  62  54 E13       29.97S

...EASTERN NEBRASKA...

CITY           SKY/WX    TMP DP  RH WIND       PRES   REMARKS
NORFOLK        SUNNY     74  64  71 SE3       29.97S
SO SIOUX CITY  CLEAR     75  65  70 CALM      29.95S
TEKAMAH        CLEAR     76  57  51 E5        29.95S
COLUMBUS       SUNNY     73  63  68 CALM      29.98F
ALBION         SUNNY     75  63  66 SE6       29.98S
OMAHA EPPLEY   PTCLDY    77  52  41 CALM      29.96S
OFFUTT AFB     CLEAR     73  61  68 E3        29.95S
MILLARD        CLEAR     75  57  53 SE5       29.96R
LINCOLN        CLEAR     75  63  66 NE6       29.97S
NEBRASKA CITY  CLEAR     74  53  47 N3        29.97R
BEATRICE       CLEAR     76  60  57 NE3       29.96S
FALLS CITY     CLEAR     76  61  59 CALM      29.95R

...NORTHERN KANSAS...

CITY           SKY/WX    TMP DP  RH WIND       PRES   REMARKS
GOODLAND       MOSUNNY   83  53  35 E9        30.00S
HILL CITY      SUNNY     82  57  42 E10       29.97R HAZE
NORTON         CLEAR     79  55  44 E7        29.98R
PHILLIPSBURG   SUNNY     82  57  42 NE10      29.95S
SMITH CENTER   SUNNY     79  59  50 NE9       29.96F
HAYS           SUNNY     82  57  42 E5        29.96R
RUSSELL        SUNNY     80  61  52 E7        29.94S
CONCORDIA      CLEAR     76  62  62 E8        29.95F
SALINA         CLEAR     82  60  47 E8        29.94R
TOPEKA         CLEAR     76  59  55 NE5       29.94S



USA.gov is the U.S. government's official web portal to all federal, state and local government web resources and services.